Back to catalog

STARLINK-36515

AliveCommunicationsVLEO
NORAD 67430·PAYLOAD·🇺🇸 United States

Launched Jan 12, 2026 from Cape Canaveral Space Force Station

Loading…

Next Passes (next 24 hours)

TLE

FreshSource: CelesTrak SupGP

Epoch: Sep 14, 2026, 20:54 UTC

1 67430C 26005AC  26257.87131944  .00028808  00000+0  10437-2 0  2571
2 67430  43.0012 249.7358 0001581 265.3567 236.9202 15.27555725    18

Track STARLINK-36515 in real time with AllMySat

Download on the App Store